Orbital Elements at Epoch 2459000.5 (2020-May-31.0) TDB
Reference: JPL 20 (heliocentric ecliptic J2000)
Element | Value | Uncertainty (1-sigma) | Units |
e | .07405870052220964 | 5.5849e-08 | |
a | 2.973443789751351 | 3.5216e-08 | au |
q | 2.753234406606532 | 1.5569e-07 | au |
i | 10.13179635597064 | 5.0893e-06 | deg |
node | 218.9583155134226 | 3.4299e-05 | deg |
peri | 168.8793932984099 | 5.2351e-05 | deg |
M | 132.6662422009535 | 3.9517e-05 | deg |
tp | 2458310.346089031879 (2018-Jul-10.84608903) | 0.00020439 | TDB |
period | 1872.785448857297 5.13 | 3.3271e-05 9.109e-08 | d yr |
n | .1922270381904443 | 3.415e-09 | deg/d |
Q | 3.19365317289617 | 3.7824e-08 | au |
|
| | Orbit Determination Parameters
Additional Information
|